Flight Information

DEPARTURE
HELENA, MT
Elevation:
3877
Runways:
5/23 - 4644x75 - ASPH-F
9/27 - 9000x150 - ASPH-G
10/28 - 1584x75 - TURF
17/35 - 2989x75 - ASPH-F
ATIS:
120.4
Ground:
121.9
Tower:
HELENA TOWER 118.3
DESTINATION
,
Elevation:
TPA:
1000 (est.)


6293.9 NM74° True-16° Var57° HDG

Flight Plan:
(click to file on line)

1. Type
2. Aircraft Identification
3. Aircraft Type / Special Equipment
4. True Airspeed
kts
5. Departure Airport
(ICAO code)
6. Arriving Airport
(ICAO code)
7. Cruising Altitude
ft
8. Alternate Airport
(ICAO code)
9. Route of Flight
10. Remarks


00:00:00 Departure ATIS: Destination ATIS:

Clearance Limit:
Route:
Altitude: Expect in minutes
Frequency:
Transponder: (7500 Hijack / 7600 Lost Comms / 7700 Emergency)


KHLN 040153Z 23005KT 10SM CLR M10/M16 A3019 RMK AO2 SLP309 T11001156 $
Time: 2022-12-04T01:53:00Z
1670646980
Winds: 230 @ 5 kts
Visibility: 10.0 sm
Clouds (AGL): CLR
Temperature: -10.0 C
Dew Point: -15.6 C
Pressure: 30.188976 in Hgbr


Notes:

Data extracted from FAA Digital Chart Supplement. Effective: 0901Z Thursday, 27 JAN 2022 to 0900z Thursday, 24 MAR 2022
Current ATIS data is provided courtisy of PilotEdge.